When you browse on this site, cookies collect data to enhance your experience and personalize the content and advertising you see.
Visit our Privacy Policy to learn more. By continuing to use the site, you agree to this use of cookies and data.
  • In United Kingdom
  • List of Countries
  • For 7 days
  • Water Temperature
  • Weather Map
  • Weather Widgets
  • user-avatar
    Login

    Hourly Weather Gjirokaster

    Today, 15 September, Sunday

    Time Temperature Precipitation Wind Pressure Humidity
    00:00 +14°C° 0 mm 2 mps 657 mmHg 45%
    01:00 +14°C° 0 mm 2 mps 657 mmHg 45%
    02:00 +14°C° 0 mm 2 mps 657 mmHg 46%
    03:00 +14°C° 0 mm 2 mps 657 mmHg 47%
    04:00 +13°C° 0 mm 2 mps 656 mmHg 48%
    05:00 +14°C° 0 mm 2 mps 657 mmHg 47%
    06:00 +15°C° 0 mm 2 mps 658 mmHg 47%
    07:00 +17°C° 0 mm 2 mps 658 mmHg 45%
    08:00 +18°C° 0 mm 2 mps 659 mmHg 41%
    09:00 +21°C° 0 mm 1 mps 659 mmHg 37%
    10:00 +23°C° 0 mm 1 mps 659 mmHg 33%
    11:00 +24°C° 0 mm 1 mps 659 mmHg 32%
    12:00 +24°C° 0 mm 2 mps 660 mmHg 31%
    13:00 +25°C° 0 mm 2 mps 660 mmHg 30%
    14:00 +24°C° 0 mm 2 mps 659 mmHg 31%
    15:00 +22°C° 0 mm 3 mps 658 mmHg 33%
    16:00 +22°C° 0 mm 3 mps 658 mmHg 34%
    17:00 +20°C° 0 mm 3 mps 657 mmHg 40%
    18:00 +18°C° 0 mm 2 mps 657 mmHg 46%
    19:00 +16°C° 0 mm 1 mps 657 mmHg 52%
    20:00 +16°C° 0 mm 1 mps 657 mmHg 53%
    21:00 +15°C° 0 mm 1 mps 657 mmHg 55%
    22:00 +15°C° 0 mm 1 mps 656 mmHg 57%
    23:00 +15°C° 0 mm 1 mps 656 mmHg 57%

    Tomorrow, 16 September, Monday

    Time Temperature Precipitation Wind Pressure Humidity
    00:00 +15°C° 0 mm 1 mps 656 mmHg 57%
    01:00 +14°C° 0 mm 1 mps 656 mmHg 57%
    02:00 +14°C° 0 mm 1 mps 656 mmHg 57%
    03:00 +14°C° 0 mm 1 mps 655 mmHg 57%
    04:00 +14°C° 0 mm 1 mps 655 mmHg 57%
    05:00 +15°C° 0 mm 1 mps 655 mmHg 53%
    06:00 +16°C° 0 mm 1 mps 655 mmHg 50%
    07:00 +18°C° 0 mm 1 mps 655 mmHg 47%
    08:00 +19°C° 0 mm 1 mps 656 mmHg 43%
    09:00 +21°C° 0 mm 1 mps 656 mmHg 39%
    10:00 +23°C° 0 mm 2 mps 657 mmHg 35%
    11:00 +23°C° 0 mm 2 mps 657 mmHg 35%
    12:00 +24°C° 0 mm 2 mps 656 mmHg 35%
    13:00 +24°C° 0 mm 3 mps 656 mmHg 35%
    14:00 +24°C° 0 mm 3 mps 656 mmHg 38%
    15:00 +22°C° 0 mm 3 mps 655 mmHg 41%
    16:00 +21°C° 0 mm 3 mps 655 mmHg 44%
    17:00 +20°C° 0 mm 3 mps 655 mmHg 52%
    18:00 +18°C° 0 mm 2 mps 654 mmHg 59%
    19:00 +16°C° 0 mm 2 mps 654 mmHg 67%
    20:00 +16°C° 0 mm 1 mps 654 mmHg 68%
    21:00 +15°C° 0 mm 1 mps 654 mmHg 69%
    22:00 +15°C° 0 mm 1 mps 654 mmHg 69%
    23:00 +14°C° 0 mm 1 mps 653 mmHg 69%

    Day after tomorrow, 17 September, Tuesday

    Time Temperature Precipitation Wind Pressure Humidity
    00:00 +14°C° 0 mm 1 mps 653 mmHg 69%
    01:00 +14°C° 0 mm 1 mps 653 mmHg 69%
    02:00 +13°C° 0 mm 1 mps 653 mmHg 69%
    03:00 +13°C° 0 mm 1 mps 653 mmHg 70%
    04:00 +13°C° 0 mm 1 mps 652 mmHg 70%
    05:00 +14°C° 0 mm 1 mps 653 mmHg 66%
    06:00 +15°C° 0 mm 1 mps 653 mmHg 62%
    07:00 +15°C° 0 mm 0 mps 653 mmHg 58%
    08:00 +19°C° 0 mm 1 mps 654 mmHg 51%
    09:00 +21°C° 0 mm 1 mps 655 mmHg 44%
    10:00 +23°C° 0 mm 1 mps 655 mmHg 37%
    11:00 +23°C° 0 mm 1 mps 655 mmHg 35%
    12:00 +24°C° 0 mm 2 mps 655 mmHg 34%
    13:00 +24°C° 0 mm 2 mps 655 mmHg 32%
    14:00 +24°C° 0 mm 2 mps 654 mmHg 36%
    15:00 +23°C° 0 mm 2 mps 654 mmHg 39%
    16:00 +21°C° 0 mm 2 mps 653 mmHg 43%
    17:00 +19°C° 0 mm 2 mps 653 mmHg 50%
    18:00 +18°C° 0 mm 1 mps 653 mmHg 57%
    19:00 +15°C° 0 mm 1 mps 652 mmHg 64%
    20:00 +15°C° 0 mm 1 mps 652 mmHg 65%
    21:00 +14°C° 0 mm 0 mps 652 mmHg 66%
    22:00 +13°C° 0 mm 0 mps 652 mmHg 68%
    23:00 +13°C° 0 mm 0 mps 652 mmHg 68%

    18 September, Wednesday

    Time Temperature Precipitation Wind Pressure Humidity
    00:00 +13°C° 0 mm 0 mps 652 mmHg 69%
    01:00 +12°C° 0 mm 0 mps 652 mmHg 69%
    02:00 +12°C° 0 mm 0 mps 652 mmHg 69%
    03:00 +12°C° 0 mm 0 mps 651 mmHg 68%
    04:00 +11°C° 0 mm 0 mps 651 mmHg 68%
    05:00 +12°C° 0 mm 0 mps 652 mmHg 63%
    06:00 +14°C° 0 mm 0 mps 652 mmHg 58%
    07:00 +15°C° 0 mm 0 mps 653 mmHg 53%
    08:00 +18°C° 0 mm 1 mps 653 mmHg 48%
    09:00 +20°C° 0 mm 1 mps 654 mmHg 42%
    10:00 +21°C° 0 mm 2 mps 654 mmHg 37%
    11:00 +21°C° 0 mm 2 mps 654 mmHg 36%
    12:00 +23°C° 0 mm 2 mps 654 mmHg 36%
    13:00 +23°C° 0 mm 2 mps 654 mmHg 35%
    14:00 +23°C° 0 mm 2 mps 653 mmHg 39%
    15:00 +21°C° 0 mm 2 mps 653 mmHg 44%
    16:00 +20°C° 0 mm 2 mps 653 mmHg 48%
    17:00 +20°C° 0 mm 1 mps 652 mmHg 57%
    18:00 +18°C° 0 mm 1 mps 652 mmHg 66%
    19:00 +15°C° 0 mm 1 mps 652 mmHg 75%
    20:00 +15°C° 0 mm 1 mps 652 mmHg 76%
    21:00 +14°C° 0 mm 1 mps 652 mmHg 78%
    22:00 +14°C° 0 mm 1 mps 652 mmHg 79%
    23:00 +14°C° 0 mm 1 mps 652 mmHg 79%

    19 September, Thursday

    Time Temperature Precipitation Wind Pressure Humidity
    00:00 +13°C° 0 mm 0 mps 652 mmHg 79%
    01:00 +12°C° 0 mm 0 mps 652 mmHg 78%
    02:00 +12°C° 0 mm 0 mps 652 mmHg 78%
    03:00 +12°C° 0 mm 0 mps 651 mmHg 77%
    04:00 +12°C° 0 mm 0 mps 651 mmHg 77%
    05:00 +14°C° 0 mm 1 mps 651 mmHg 72%
    06:00 +15°C° 0 mm 1 mps 652 mmHg 67%
    07:00 +16°C° 0 mm 1 mps 652 mmHg 62%
    08:00 +19°C° 0 mm 1 mps 653 mmHg 56%
    09:00 +20°C° 0 mm 1 mps 653 mmHg 50%
    10:00 +21°C° 0 mm 2 mps 654 mmHg 44%
    11:00 +21°C° 0 mm 2 mps 654 mmHg 44%
    12:00 +23°C° 0 mm 2 mps 653 mmHg 44%
    13:00 +23°C° 0 mm 2 mps 653 mmHg 44%
    14:00 +21°C° 0.1 mm 2 mps 653 mmHg 47%
    15:00 +21°C° 0.1 mm 2 mps 652 mmHg 51%
    16:00 +20°C° 0.1 mm 2 mps 652 mmHg 54%
    17:00 +18°C° 0.7 mm 2 mps 651 mmHg 63%
    18:00 +18°C° 0.7 mm 1 mps 651 mmHg 72%
    19:00 +15°C° 0.7 mm 1 mps 651 mmHg 80%
    20:00 +15°C° 0.8 mm 1 mps 651 mmHg 81%
    21:00 +15°C° 0.8 mm 1 mps 651 mmHg 81%
    22:00 +15°C° 0.8 mm 1 mps 651 mmHg 82%
    23:00 +14°C° 0.3 mm 1 mps 651 mmHg 82%

    20 September, Friday

    Time Temperature Precipitation Wind Pressure Humidity
    00:00 +14°C° 0.3 mm 1 mps 651 mmHg 81%
    01:00 +13°C° 0.3 mm 0 mps 651 mmHg 81%
    02:00 +12°C° 0.2 mm 0 mps 651 mmHg 81%
    03:00 +13°C° 0.2 mm 1 mps 650 mmHg 82%
    04:00 +13°C° 0.2 mm 1 mps 650 mmHg 82%
    05:00 +13°C° 0.3 mm 1 mps 650 mmHg 81%
    06:00 +14°C° 0.3 mm 1 mps 651 mmHg 80%
    07:00 +14°C° 0.3 mm 1 mps 651 mmHg 79%
    08:00 +15°C° 0.3 mm 2 mps 652 mmHg 72%
    09:00 +17°C° 0.3 mm 2 mps 653 mmHg 65%
    10:00 +18°C° 0.3 mm 2 mps 653 mmHg 58%
    11:00 +18°C° 0.5 mm 3 mps 653 mmHg 59%
    12:00 +18°C° 0.5 mm 4 mps 653 mmHg 59%
    13:00 +18°C° 0.5 mm 4 mps 653 mmHg 59%
    14:00 +18°C° 0.2 mm 4 mps 653 mmHg 60%
    15:00 +17°C° 0.2 mm 4 mps 653 mmHg 61%
    16:00 +17°C° 0.2 mm 4 mps 653 mmHg 62%
    17:00 +14°C° 0 mm 4 mps 652 mmHg 64%
    18:00 +13°C° 0 mm 4 mps 652 mmHg 66%
    19:00 +11°C° 0 mm 3 mps 652 mmHg 68%
    20:00 +11°C° 0 mm 3 mps 652 mmHg 68%
    21:00 +10°C° 0 mm 3 mps 652 mmHg 67%
    22:00 +9°C° 0 mm 3 mps 652 mmHg 66%
    23:00 +9°C° 0 mm 2 mps 652 mmHg 65%
    Show more